Wetterdaten: Donnerstag, 09.05.2013
Datum Zeit Temperatur Luftfeuchte Luftdruck Regen Wind Richtung Richtung Taupunkt Windchill Windben
09.05.2013 00:00 10,8 C 85 % 1017,4 hPa 0,0 l/m 0,2 km/h (0 Bft) N 360 8,4 C 10,6 C 0,0 km/h (0 Bft)
09.05.2013 00:05 10,6 C 85 % 1017,5 hPa 0,0 l/m 0,0 km/h (0 Bft) SW 225 8,2 C 10,5 C 0,0 km/h (0 Bft)
09.05.2013 00:10 10,6 C 86 % 1017,5 hPa 0,0 l/m 0,0 km/h (0 Bft) N-NW 337 8,4 C 10,3 C 0,0 km/h (0 Bft)
09.05.2013 00:15 10,3 C 86 % 1017,5 hPa 0,0 l/m 0,0 km/h (0 Bft) N 360 8,1 C 10,3 C 0,0 km/h (0 Bft)
09.05.2013 00:20 10,2 C 85 % 1017,5 hPa 0,0 l/m 0,0 km/h (0 Bft) NO 45 7,8 C 10,0 C 0,0 km/h (0 Bft)
09.05.2013 00:25 10,0 C 85 % 1017,4 hPa 0,0 l/m 0,0 km/h (0 Bft) O-NO 67 7,6 C 9,9 C 0,0 km/h (0 Bft)
09.05.2013 00:30 9,9 C 85 % 1017,4 hPa 0,0 l/m 0,0 km/h (0 Bft) N 360 7,5 C 9,8 C 0,0 km/h (0 Bft)
09.05.2013 00:35 10,0 C 85 % 1017,4 hPa 0,0 l/m 0,0 km/h (0 Bft) O 90 7,6 C 9,8 C 0,0 km/h (0 Bft)
09.05.2013 00:40 10,2 C 85 % 1017,4 hPa 0,0 l/m 0,0 km/h (0 Bft) NO 45 7,8 C 10,0 C 0,0 km/h (0 Bft)
09.05.2013 00:45 10,3 C 86 % 1017,5 hPa 0,0 l/m 0,0 km/h (0 Bft) O 90 8,1 C 10,0 C 0,0 km/h (0 Bft)
09.05.2013 00:50 10,8 C 86 % 1017,5 hPa 0,0 l/m 0,5 km/h (0 Bft) O-SO 112 8,6 C 10,4 C 2,9 km/h (1 Bft)
09.05.2013 00:55 11,0 C 86 % 1017,5 hPa 0,0 l/m 0,6 km/h (0 Bft) O-NO 67 8,7 C 10,7 C 0,0 km/h (0 Bft)
09.05.2013 01:00 11,0 C 85 % 1017,5 hPa 0,0 l/m 0,3 km/h (0 Bft) O 90 8,6 C 10,8 C 0,0 km/h (0 Bft)
09.05.2013 01:05 11,0 C 85 % 1017,6 hPa 0,0 l/m 0,0 km/h (0 Bft) O 90 8,6 C 10,9 C 0,0 km/h (0 Bft)
09.05.2013 01:10 11,2 C 85 % 1017,6 hPa 0,0 l/m 1,0 km/h (0 Bft) O-SO 112 8,8 C 10,9 C 3,5 km/h (1 Bft)
09.05.2013 01:15 11,3 C 85 % 1017,6 hPa 0,0 l/m 1,9 km/h (1 Bft) O 90 8,9 C 11,0 C 2,7 km/h (1 Bft)
09.05.2013 01:20 11,3 C 84 % 1017,6 hPa 0,0 l/m 3,5 km/h (1 Bft) O 90 8,7 C 11,2 C 5,5 km/h (1 Bft)
09.05.2013 01:25 11,1 C 84 % 1017,6 hPa 0,0 l/m 3,1 km/h (1 Bft) SO 135 8,5 C 11,2 C 2,1 km/h (1 Bft)
09.05.2013 01:30 10,8 C 84 % 1017,6 hPa 0,0 l/m 2,6 km/h (1 Bft) O 90 8,2 C 11,0 C 3,7 km/h (1 Bft)
09.05.2013 01:35 10,9 C 84 % 1017,6 hPa 0,0 l/m 2,7 km/h (1 Bft) O 90 8,3 C 10,8 C 3,5 km/h (1 Bft)
09.05.2013 01:40 10,8 C 84 % 1017,6 hPa 0,0 l/m 2,7 km/h (1 Bft) O-NO 67 8,2 C 10,7 C 1,9 km/h (1 Bft)
09.05.2013 01:45 10,6 C 84 % 1017,6 hPa 0,0 l/m 2,3 km/h (1 Bft) NO 45 8,0 C 10,5 C 2,7 km/h (1 Bft)
09.05.2013 01:50 10,5 C 84 % 1017,6 hPa 0,0 l/m 1,6 km/h (1 Bft) O-NO 67 7,9 C 10,3 C 0,0 km/h (0 Bft)
09.05.2013 01:55 10,2 C 84 % 1017,6 hPa 0,0 l/m 1,0 km/h (0 Bft) O-NO 67 7,6 C 10,1 C 1,8 km/h (1 Bft)
09.05.2013 02:00 10,0 C 84 % 1017,6 hPa 0,0 l/m 0,2 km/h (0 Bft) NO 45 7,4 C 9,9 C 2,7 km/h (1 Bft)
09.05.2013 02:05 10,2 C 85 % 1017,4 hPa 0,0 l/m 0,5 km/h (0 Bft) S 180 7,8 C 9,9 C 0,0 km/h (0 Bft)
09.05.2013 02:10 10,1 C 85 % 1017,4 hPa 0,0 l/m 0,5 km/h (0 Bft) O 90 7,7 C 9,9 C 0,0 km/h (0 Bft)
09.05.2013 02:15 10,1 C 85 % 1017,4 hPa 0,0 l/m 0,2 km/h (0 Bft) S 180 7,7 C 9,9 C 0,0 km/h (0 Bft)
09.05.2013 02:20 10,2 C 85 % 1017,4 hPa 0,0 l/m 0,2 km/h (0 Bft) O-NO 67 7,8 C 9,9 C 0,0 km/h (0 Bft)
09.05.2013 02:25 10,5 C 86 % 1017,4 hPa 0,0 l/m 0,2 km/h (0 Bft) O 90 8,3 C 10,0 C 0,0 km/h (0 Bft)
09.05.2013 02:30 10,6 C 86 % 1017,4 hPa 0,0 l/m 0,2 km/h (0 Bft) NO 45 8,4 C 10,3 C 0,0 km/h (0 Bft)
09.05.2013 02:35 10,6 C 86 % 1017,4 hPa 0,0 l/m 0,2 km/h (0 Bft) W 270 8,4 C 10,4 C 0,0 km/h (0 Bft)
09.05.2013 02:40 10,7 C 86 % 1017,4 hPa 0,0 l/m 0,2 km/h (0 Bft) N 360 8,5 C 10,5 C 0,0 km/h (0 Bft)
09.05.2013 02:45 10,8 C 86 % 1017,4 hPa 0,0 l/m 0,5 km/h (0 Bft) S 180 8,6 C 10,7 C 0,0 km/h (0 Bft)
09.05.2013 02:50 10,9 C 86 % 1017,4 hPa 0,0 l/m 0,3 km/h (0 Bft) O 90 8,7 C 10,7 C 0,0 km/h (0 Bft)
09.05.2013 02:55 10,9 C 85 % 1017,4 hPa 0,0 l/m 0,0 km/h (0 Bft) NO 45 8,5 C 10,8 C 0,0 km/h (0 Bft)
09.05.2013 03:00 11,0 C 85 % 1017,4 hPa 0,0 l/m 0,0 km/h (0 Bft) N-NW 337 8,6 C 10,8 C 0,0 km/h (0 Bft)
09.05.2013 03:05 11,0 C 85 % 1017,5 hPa 0,0 l/m 0,2 km/h (0 Bft) NO 45 8,6 C 10,8 C 0,0 km/h (0 Bft)
09.05.2013 03:10 10,8 C 85 % 1017,5 hPa 0,0 l/m 0,3 km/h (0 Bft) NO 45 8,4 C 10,7 C 0,0 km/h (0 Bft)
09.05.2013 03:15 10,6 C 85 % 1017,5 hPa 0,0 l/m 0,3 km/h (0 Bft) NO 45 8,2 C 10,7 C 0,0 km/h (0 Bft)
09.05.2013 03:20 10,6 C 85 % 1017,5 hPa 0,0 l/m 0,2 km/h (0 Bft) W 270 8,2 C 10,7 C 0,0 km/h (0 Bft)
09.05.2013 03:25 10,6 C 85 % 1017,6 hPa 0,0 l/m 0,2 km/h (0 Bft) NO 45 8,2 C 10,7 C 0,0 km/h (0 Bft)
09.05.2013 03:30 10,7 C 85 % 1017,6 hPa 0,0 l/m 0,2 km/h (0 Bft) N 360 8,3 C 10,8 C 0,0 km/h (0 Bft)
09.05.2013 03:35 10,8 C 85 % 1017,6 hPa 0,0 l/m 0,2 km/h (0 Bft) W 270 8,4 C 10,9 C 1,8 km/h (1 Bft)
09.05.2013 03:40 11,1 C 85 % 1017,6 hPa 0,0 l/m 0,2 km/h (0 Bft) N-NO 22 8,7 C 11,1 C 0,0 km/h (0 Bft)
09.05.2013 03:45 11,2 C 84 % 1017,4 hPa 0,0 l/m 0,2 km/h (0 Bft) NO 45 8,6 C 11,2 C 2,7 km/h (1 Bft)
09.05.2013 03:50 11,3 C 84 % 1017,4 hPa 0,0 l/m 0,2 km/h (0 Bft) W-SW 247 8,7 C 11,3 C 0,0 km/h (0 Bft)
09.05.2013 03:55 11,3 C 84 % 1017,4 hPa 0,0 l/m 0,5 km/h (0 Bft) S-SW 202 8,7 C 11,3 C 3,4 km/h (1 Bft)
09.05.2013 04:00 11,3 C 85 % 1017,4 hPa 0,0 l/m 1,1 km/h (1 Bft) O 90 8,9 C 11,4 C 2,6 km/h (1 Bft)
09.05.2013 04:05 11,7 C 84 % 1017,5 hPa 0,0 l/m 2,4 km/h (1 Bft) O-NO 67 9,1 C 11,5 C 5,8 km/h (2 Bft)
09.05.2013 04:10 12,3 C 81 % 1017,5 hPa 0,0 l/m 3,7 km/h (1 Bft) S 180 9,1 C 11,9 C 7,7 km/h (2 Bft)
09.05.2013 04:15 12,3 C 79 % 1017,5 hPa 0,0 l/m 4,0 km/h (1 Bft) S 180 8,8 C 12,3 C 6,1 km/h (2 Bft)
09.05.2013 04:20 12,4 C 77 % 1017,5 hPa 0,0 l/m 4,5 km/h (1 Bft) O-SO 112 8,5 C 12,7 C 12,4 km/h (3 Bft)
09.05.2013 04:25 12,5 C 77 % 1017,6 hPa 0,0 l/m 4,8 km/h (1 Bft) S-SO 157 8,6 C 12,9 C 3,7 km/h (1 Bft)
09.05.2013 04:30 12,5 C 76 % 1017,6 hPa 0,0 l/m 4,3 km/h (1 Bft) SO 135 8,4 C 12,9 C 4,8 km/h (1 Bft)
09.05.2013 04:35 12,5 C 76 % 1017,6 hPa 0,0 l/m 3,7 km/h (1 Bft) SO 135 8,4 C 12,9 C 3,7 km/h (1 Bft)
09.05.2013 04:40 12,5 C 76 % 1017,6 hPa 0,0 l/m 3,4 km/h (1 Bft) S 180 8,4 C 12,9 C 6,1 km/h (2 Bft)
09.05.2013 04:45 12,4 C 76 % 1017,6 hPa 0,0 l/m 2,9 km/h (1 Bft) O 90 8,3 C 12,8 C 4,0 km/h (1 Bft)
09.05.2013 04:50 12,2 C 76 % 1017,6 hPa 0,0 l/m 1,6 km/h (1 Bft) O 90 8,1 C 12,6 C 2,1 km/h (1 Bft)
09.05.2013 04:55 12,1 C 76 % 1017,6 hPa 0,0 l/m 1,1 km/h (1 Bft) NO 45 8,0 C 12,6 C 0,0 km/h (0 Bft)
09.05.2013 05:00 12,0 C 76 % 1017,6 hPa 0,0 l/m 0,5 km/h (0 Bft) S 180 7,9 C 12,3 C 0,0 km/h (0 Bft)
09.05.2013 05:05 11,8 C 76 % 1017,7 hPa 0,0 l/m 1,1 km/h (1 Bft) O-NO 67 7,7 C 12,1 C 2,3 km/h (1 Bft)
09.05.2013 05:10 11,7 C 76 % 1017,7 hPa 0,0 l/m 1,3 km/h (1 Bft) O-SO 112 7,6 C 11,9 C 1,6 km/h (1 Bft)
09.05.2013 05:15 11,8 C 76 % 1017,7 hPa 0,0 l/m 1,1 km/h (1 Bft) O 90 7,7 C 11,8 C 4,0 km/h (1 Bft)
09.05.2013 05:20 11,9 C 75 % 1017,7 hPa 0,0 l/m 1,9 km/h (1 Bft) O 90 7,6 C 11,9 C 1,9 km/h (1 Bft)
09.05.2013 05:25 11,9 C 75 % 1017,8 hPa 0,0 l/m 2,4 km/h (1 Bft) O-NO 67 7,6 C 11,8 C 2,9 km/h (1 Bft)
09.05.2013 05:30 11,8 C 75 % 1017,8 hPa 0,0 l/m 2,3 km/h (1 Bft) NO 45 7,5 C 11,8 C 2,6 km/h (1 Bft)
09.05.2013 05:35 11,6 C 76 % 1017,8 hPa 0,0 l/m 1,9 km/h (1 Bft) O-NO 67 7,5 C 11,7 C 2,3 km/h (1 Bft)
09.05.2013 05:40 11,7 C 76 % 1017,8 hPa 0,0 l/m 1,8 km/h (1 Bft) O 90 7,6 C 11,7 C 2,1 km/h (1 Bft)
09.05.2013 05:45 11,6 C 76 % 1017,9 hPa 0,0 l/m 1,9 km/h (1 Bft) O-NO 67 7,5 C 11,7 C 3,2 km/h (1 Bft)
09.05.2013 05:50 11,5 C 76 % 1017,9 hPa 0,0 l/m 1,8 km/h (1 Bft) O-NO 67 7,4 C 11,7 C 2,1 km/h (1 Bft)
09.05.2013 05:55 11,4 C 76 % 1017,9 hPa 0,0 l/m 1,3 km/h (1 Bft) O 90 7,3 C 11,6 C 0,0 km/h (0 Bft)
09.05.2013 06:00 11,5 C 76 % 1017,9 hPa 0,0 l/m 0,6 km/h (0 Bft) SO 135 7,4 C 11,4 C 0,0 km/h (0 Bft)
09.05.2013 06:05 11,7 C 76 % 1018,0 hPa 0,0 l/m 1,3 km/h (1 Bft) O-SO 112 7,6 C 11,5 C 2,7 km/h (1 Bft)
09.05.2013 06:10 11,9 C 76 % 1018,0 hPa 0,0 l/m 2,1 km/h (1 Bft) NO 45 7,8 C 11,8 C 3,9 km/h (1 Bft)
09.05.2013 06:15 12,0 C 76 % 1018,0 hPa 0,0 l/m 2,4 km/h (1 Bft) O 90 7,9 C 11,9 C 2,6 km/h (1 Bft)
09.05.2013 06:20 12,1 C 76 % 1018,0 hPa 0,0 l/m 2,4 km/h (1 Bft) O 90 8,0 C 12,1 C 3,1 km/h (1 Bft)
09.05.2013 06:25 12,2 C 76 % 1018,6 hPa 0,0 l/m 2,1 km/h (1 Bft) O 90 8,1 C 12,2 C 1,9 km/h (1 Bft)
09.05.2013 06:30 12,2 C 76 % 1018,6 hPa 0,0 l/m 1,1 km/h (1 Bft) O 90 8,1 C 12,4 C 0,0 km/h (0 Bft)
09.05.2013 06:35 12,3 C 76 % 1018,6 hPa 0,0 l/m 0,6 km/h (0 Bft) O 90 8,2 C 12,4 C 3,2 km/h (1 Bft)
09.05.2013 06:40 12,3 C 76 % 1018,6 hPa 0,0 l/m 1,9 km/h (1 Bft) NO 45 8,2 C 12,5 C 3,1 km/h (1 Bft)
09.05.2013 06:45 12,3 C 76 % 1019,0 hPa 0,0 l/m 2,7 km/h (1 Bft) NO 45 8,2 C 12,5 C 1,8 km/h (1 Bft)
09.05.2013 06:50 12,3 C 76 % 1019,0 hPa 0,0 l/m 1,9 km/h (1 Bft) NO 45 8,2 C 12,5 C 1,6 km/h (1 Bft)
09.05.2013 06:55 12,2 C 76 % 1019,0 hPa 0,0 l/m 1,1 km/h (1 Bft) NO 45 8,1 C 12,6 C 0,0 km/h (0 Bft)
09.05.2013 07:00 12,3 C 76 % 1019,0 hPa 0,0 l/m 0,8 km/h (0 Bft) O-NO 67 8,2 C 12,6 C 0,0 km/h (0 Bft)
09.05.2013 07:05 12,4 C 76 % 1018,9 hPa 0,0 l/m 0,5 km/h (0 Bft) NO 45 8,3 C 12,6 C 1,8 km/h (1 Bft)
09.05.2013 07:10 12,5 C 76 % 1018,9 hPa 0,0 l/m 0,2 km/h (0 Bft) O 90 8,4 C 12,7 C 0,0 km/h (0 Bft)
09.05.2013 07:15 12,7 C 76 % 1018,9 hPa 0,0 l/m 0,3 km/h (0 Bft) O-SO 112 8,6 C 12,8 C 2,1 km/h (1 Bft)
09.05.2013 07:20 12,7 C 76 % 1018,9 hPa 0,0 l/m 1,1 km/h (1 Bft) S-SO 157 8,6 C 13,0 C 2,7 km/h (1 Bft)
09.05.2013 07:25 12,7 C 76 % 1019,2 hPa 0,0 l/m 1,0 km/h (0 Bft) N-NO 22 8,6 C 13,1 C 0,0 km/h (0 Bft)
09.05.2013 07:30 12,9 C 74 % 1019,2 hPa 0,0 l/m 1,0 km/h (0 Bft) O 90 8,4 C 13,1 C 4,5 km/h (1 Bft)
09.05.2013 07:35 12,9 C 75 % 1019,2 hPa 0,0 l/m 1,0 km/h (0 Bft) O-NO 67 8,6 C 13,3 C 0,0 km/h (0 Bft)
09.05.2013 07:40 13,0 C 75 % 1019,2 hPa 0,0 l/m 1,1 km/h (1 Bft) NO 45 8,7 C 13,4 C 4,3 km/h (1 Bft)
09.05.2013 07:45 12,9 C 76 % 1019,2 hPa 0,0 l/m 1,1 km/h (1 Bft) W-SW 247 8,8 C 13,5 C 3,5 km/h (1 Bft)
09.05.2013 07:50 12,7 C 75 % 1019,2 hPa 0,0 l/m 1,4 km/h (1 Bft) O-NO 67 8,4 C 13,2 C 2,1 km/h (1 Bft)
09.05.2013 07:55 12,7 C 75 % 1019,2 hPa 0,0 l/m 1,0 km/h (0 Bft) S-SO 157 8,4 C 13,1 C 1,8 km/h (1 Bft)
09.05.2013 08:00 12,4 C 76 % 1019,2 hPa 0,0 l/m 1,3 km/h (1 Bft) O-SO 112 8,3 C 12,9 C 0,0 km/h (0 Bft)
09.05.2013 08:05 12,5 C 76 % 1019,4 hPa 0,0 l/m 1,3 km/h (1 Bft) S 180 8,4 C 12,9 C 2,4 km/h (1 Bft)
09.05.2013 08:10 17,0 C 72 % 1019,4 hPa 0,0 l/m 0,2 km/h (0 Bft) S-SW 202 11,9 C 13,7 C 0,0 km/h (0 Bft)
09.05.2013 08:15 19,0 C 66 % 1019,4 hPa 0,0 l/m 0,2 km/h (0 Bft) N-NW 337 12,5 C 16,6 C 0,0 km/h (0 Bft)
09.05.2013 08:20 19,8 C 61 % 1019,4 hPa 0,0 l/m 0,2 km/h (0 Bft) W-SW 247 12,1 C 19,6 C 0,0 km/h (0 Bft)
09.05.2013 08:25 20,4 C 59 % 1019,4 hPa 0,0 l/m 0,2 km/h (0 Bft) W-NW 292 12,1 C 20,6 C 0,0 km/h (0 Bft)
09.05.2013 08:30 19,7 C 59 % 1019,4 hPa 0,0 l/m 0,2 km/h (0 Bft) W-SW 247 11,5 C 21,0 C 1,6 km/h (1 Bft)
09.05.2013 08:35 20,5 C 55 % 1019,4 hPa 0,0 l/m 0,0 km/h (0 Bft) N-NO 22 11,1 C 21,4 C 0,0 km/h (0 Bft)
09.05.2013 08:40 20,8 C 51 % 1019,4 hPa 0,0 l/m 1,1 km/h (1 Bft) W-SW 247 10,3 C 21,8 C 3,9 km/h (1 Bft)
09.05.2013 08:45 20,4 C 54 % 1019,6 hPa 0,0 l/m 1,6 km/h (1 Bft) S-SW 202 10,8 C 21,6 C 2,4 km/h (1 Bft)
09.05.2013 08:50 22,1 C 47 % 1019,6 hPa 0,0 l/m 2,9 km/h (1 Bft) S 180 10,3 C 21,6 C 4,7 km/h (1 Bft)
09.05.2013 08:55 22,6 C 47 % 1019,6 hPa 0,0 l/m 3,7 km/h (1 Bft) S-SW 202 10,7 C 22,1 C 5,0 km/h (1 Bft)
09.05.2013 09:00 20,6 C 47 % 1019,6 hPa 0,0 l/m 4,5 km/h (1 Bft) S 180 8,9 C 22,1 C 7,6 km/h (2 Bft)
09.05.2013 09:05 19,5 C 50 % 1019,6 hPa 0,0 l/m 4,5 km/h (1 Bft) S-SW 202 8,8 C 21,1 C 3,4 km/h (1 Bft)
09.05.2013 09:10 19,5 C 51 % 1019,6 hPa 0,0 l/m 3,5 km/h (1 Bft) S 180 9,1 C 20,2 C 2,9 km/h (1 Bft)
09.05.2013 09:15 19,3 C 52 % 1019,6 hPa 0,0 l/m 3,7 km/h (1 Bft) N-NW 337 9,2 C 20,0 C 4,3 km/h (1 Bft)
09.05.2013 09:20 20,8 C 51 % 1019,6 hPa 0,0 l/m 5,0 km/h (1 Bft) W-SW 247 10,3 C 20,3 C 5,1 km/h (1 Bft)
09.05.2013 09:25 19,7 C 50 % 1019,7 hPa 0,0 l/m 4,8 km/h (1 Bft) SW 225 9,0 C 20,3 C 3,1 km/h (1 Bft)
09.05.2013 09:30 20,2 C 51 % 1019,7 hPa 0,0 l/m 3,9 km/h (1 Bft) W-SW 247 9,7 C 20,3 C 4,7 km/h (1 Bft)
09.05.2013 09:35 21,6 C 49 % 1019,7 hPa 0,0 l/m 3,4 km/h (1 Bft) W-SW 247 10,4 C 20,6 C 3,5 km/h (1 Bft)
09.05.2013 09:40 20,3 C 49 % 1019,7 hPa 0,0 l/m 3,4 km/h (1 Bft) W-SW 247 9,2 C 21,3 C 2,6 km/h (1 Bft)
09.05.2013 09:45 20,3 C 49 % 1019,8 hPa 0,0 l/m 3,2 km/h (1 Bft) W-SW 247 9,2 C 21,5 C 4,0 km/h (1 Bft)
09.05.2013 09:50 20,4 C 47 % 1019,8 hPa 0,0 l/m 2,6 km/h (1 Bft) S 180 8,7 C 21,8 C 8,4 km/h (2 Bft)
09.05.2013 09:55 19,8 C 48 % 1019,8 hPa 0,0 l/m 2,7 km/h (1 Bft) S 180 8,5 C 21,5 C 3,4 km/h (1 Bft)
09.05.2013 10:00 21,0 C 47 % 1019,8 hPa 0,0 l/m 3,5 km/h (1 Bft) S 180 9,3 C 22,1 C 5,8 km/h (2 Bft)
09.05.2013 10:05 21,5 C 47 % 1019,9 hPa 0,0 l/m 3,2 km/h (1 Bft) S-SW 202 9,7 C 22,5 C 3,2 km/h (1 Bft)
09.05.2013 10:10 20,8 C 48 % 1019,9 hPa 0,0 l/m 4,0 km/h (1 Bft) W-SW 247 9,4 C 22,4 C 5,3 km/h (1 Bft)
09.05.2013 10:15 20,5 C 49 % 1019,9 hPa 0,0 l/m 3,5 km/h (1 Bft) W 270 9,4 C 22,0 C 1,6 km/h (1 Bft)
09.05.2013 10:20 20,3 C 49 % 1019,9 hPa 0,0 l/m 2,4 km/h (1 Bft) W-SW 247 9,2 C 21,7 C 4,2 km/h (1 Bft)
09.05.2013 10:25 20,3 C 48 % 1020,1 hPa 0,0 l/m 2,7 km/h (1 Bft) SW 225 8,9 C 21,7 C 5,3 km/h (1 Bft)
09.05.2013 10:30 20,8 C 49 % 1020,1 hPa 0,0 l/m 2,6 km/h (1 Bft) W 270 9,7 C 22,1 C 3,9 km/h (1 Bft)
09.05.2013 10:35 20,6 C 49 % 1020,1 hPa 0,0 l/m 2,6 km/h (1 Bft) W-SW 247 9,5 C 22,3 C 4,0 km/h (1 Bft)
09.05.2013 10:40 20,2 C 49 % 1020,1 hPa 0,0 l/m 3,5 km/h (1 Bft) W-SW 247 9,1 C 22,3 C 5,5 km/h (1 Bft)
09.05.2013 10:45 21,2 C 50 % 1020,0 hPa 0,0 l/m 3,4 km/h (1 Bft) W-SW 247 10,4 C 21,7 C 6,1 km/h (2 Bft)
09.05.2013 10:50 21,0 C 48 % 1020,0 hPa 0,0 l/m 4,3 km/h (1 Bft) W-SW 247 9,6 C 22,0 C 4,3 km/h (1 Bft)
09.05.2013 10:55 22,0 C 46 % 1020,0 hPa 0,0 l/m 4,2 km/h (1 Bft) W-NW 292 9,8 C 22,3 C 3,2 km/h (1 Bft)
09.05.2013 11:00 22,0 C 43 % 1020,0 hPa 0,0 l/m 3,4 km/h (1 Bft) O-NO 67 8,8 C 23,2 C 5,0 km/h (1 Bft)
09.05.2013 11:05 22,0 C 45 % 1020,0 hPa 0,0 l/m 3,5 km/h (1 Bft) W-NW 292 9,5 C 24,0 C 5,8 km/h (2 Bft)
09.05.2013 11:10 22,5 C 44 % 1020,0 hPa 0,0 l/m 3,1 km/h (1 Bft) N-NW 337 9,6 C 24,1 C 2,4 km/h (1 Bft)
09.05.2013 11:15 21,7 C 45 % 1020,0 hPa 0,0 l/m 2,9 km/h (1 Bft) W-SW 247 9,2 C 24,1 C 5,1 km/h (1 Bft)
09.05.2013 11:20 22,4 C 45 % 1020,0 hPa 0,0 l/m 3,1 km/h (1 Bft) S-SW 202 9,9 C 23,8 C 1,9 km/h (1 Bft)
09.05.2013 11:25 22,7 C 42 % 1019,8 hPa 0,0 l/m 2,1 km/h (1 Bft) N-NW 337 9,1 C 24,3 C 0,0 km/h (0 Bft)
09.05.2013 11:30 23,0 C 45 % 1019,8 hPa 0,0 l/m 2,7 km/h (1 Bft) W-NW 292 10,4 C 24,2 C 5,8 km/h (2 Bft)
09.05.2013 11:35 22,3 C 44 % 1019,8 hPa 0,0 l/m 4,0 km/h (1 Bft) W 270 9,5 C 23,8 C 5,6 km/h (1 Bft)
09.05.2013 11:40 22,8 C 45 % 1019,8 hPa 0,0 l/m 3,9 km/h (1 Bft) SW 225 10,2 C 23,2 C 3,7 km/h (1 Bft)
09.05.2013 11:45 24,0 C 43 % 1019,8 hPa 0,0 l/m 2,7 km/h (1 Bft) S-SW 202 10,6 C 23,2 C 5,5 km/h (1 Bft)
09.05.2013 11:50 22,9 C 44 % 1019,8 hPa 0,0 l/m 2,6 km/h (1 Bft) S-SW 202 10,0 C 24,0 C 0,0 km/h (0 Bft)
09.05.2013 11:55 24,2 C 40 % 1019,8 hPa 0,0 l/m 2,6 km/h (1 Bft) W 270 9,7 C 24,7 C 1,9 km/h (1 Bft)
09.05.2013 12:00 24,7 C 40 % 1019,8 hPa 0,0 l/m 3,4 km/h (1 Bft) W-SW 247 10,2 C 25,3 C 12,6 km/h (3 Bft)
09.05.2013 12:05 24,1 C 39 % 1020,0 hPa 0,0 l/m 3,5 km/h (1 Bft) NO 45 9,3 C 25,8 C 4,8 km/h (1 Bft)
09.05.2013 12:10 24,1 C 39 % 1020,0 hPa 0,0 l/m 3,1 km/h (1 Bft) SW 225 9,3 C 25,5 C 2,7 km/h (1 Bft)
09.05.2013 12:15 21,3 C 45 % 1020,0 hPa 0,0 l/m 3,2 km/h (1 Bft) S-SW 202 8,9 C 24,7 C 6,4 km/h (2 Bft)
09.05.2013 12:20 22,9 C 45 % 1020,0 hPa 0,0 l/m 3,5 km/h (1 Bft) W-SW 247 10,3 C 23,7 C 6,9 km/h (2 Bft)
09.05.2013 12:25 23,2 C 44 % 1019,8 hPa 0,0 l/m 4,7 km/h (1 Bft) S-SW 202 10,3 C 23,7 C 6,1 km/h (2 Bft)
09.05.2013 12:30 20,6 C 48 % 1019,8 hPa 0,0 l/m 4,8 km/h (1 Bft) SO 135 9,2 C 23,8 C 4,2 km/h (1 Bft)
09.05.2013 12:35 21,6 C 49 % 1019,8 hPa 0,0 l/m 5,0 km/h (1 Bft) W-NW 292 10,4 C 23,2 C 8,9 km/h (2 Bft)
09.05.2013 12:40 22,2 C 46 % 1019,8 hPa 0,0 l/m 4,8 km/h (1 Bft) W-SW 247 10,0 C 23,1 C 7,1 km/h (2 Bft)
09.05.2013 12:45 22,5 C 46 % 1019,9 hPa 0,0 l/m 4,7 km/h (1 Bft) W 270 10,3 C 23,4 C 6,3 km/h (2 Bft)
09.05.2013 12:50 22,6 C 44 % 1019,9 hPa 0,0 l/m 4,0 km/h (1 Bft) W-NW 292 9,7 C 24,1 C 7,1 km/h (2 Bft)
09.05.2013 12:55 23,4 C 44 % 1019,9 hPa 0,0 l/m 4,3 km/h (1 Bft) N-NW 337 10,4 C 24,5 C 9,8 km/h (2 Bft)
09.05.2013 13:00 21,5 C 47 % 1019,9 hPa 0,0 l/m 5,3 km/h (1 Bft) W-SW 247 9,7 C 24,3 C 2,6 km/h (1 Bft)
09.05.2013 13:05 21,3 C 47 % 1019,9 hPa 0,0 l/m 5,1 km/h (1 Bft) W 270 9,5 C 23,6 C 6,4 km/h (2 Bft)
09.05.2013 13:10 20,8 C 49 % 1019,9 hPa 0,0 l/m 3,5 km/h (1 Bft) W-NW 292 9,7 C 23,2 C 3,2 km/h (1 Bft)
09.05.2013 13:15 20,1 C 49 % 1019,9 hPa 0,0 l/m 5,0 km/h (1 Bft) W-NW 292 9,0 C 22,4 C 10,0 km/h (2 Bft)
09.05.2013 13:20 20,0 C 50 % 1019,9 hPa 0,0 l/m 5,6 km/h (1 Bft) NW 315 9,3 C 21,6 C 14,3 km/h (3 Bft)
09.05.2013 13:25 20,2 C 52 % 1019,6 hPa 0,0 l/m 5,8 km/h (2 Bft) W 270 10,0 C 21,2 C 9,5 km/h (2 Bft)
09.05.2013 13:30 21,4 C 48 % 1019,6 hPa 0,0 l/m 6,1 km/h (2 Bft) W-NW 292 9,9 C 21,3 C 7,6 km/h (2 Bft)
09.05.2013 13:35 21,5 C 48 % 1019,6 hPa 0,0 l/m 5,0 km/h (1 Bft) W-NW 292 10,0 C 22,3 C 4,5 km/h (1 Bft)
09.05.2013 13:40 21,5 C 49 % 1019,6 hPa 0,0 l/m 4,5 km/h (1 Bft) W 270 10,3 C 22,5 C 6,9 km/h (2 Bft)
09.05.2013 13:45 21,6 C 49 % 1019,5 hPa 0,0 l/m 5,1 km/h (1 Bft) O-SO 112 10,4 C 22,8 C 11,9 km/h (2 Bft)
09.05.2013 13:50 20,8 C 51 % 1019,5 hPa 0,0 l/m 6,3 km/h (2 Bft) W-SW 247 10,3 C 22,4 C 9,7 km/h (2 Bft)
09.05.2013 13:55 20,8 C 51 % 1019,5 hPa 0,0 l/m 7,1 km/h (2 Bft) W-SW 247 10,3 C 21,7 C 8,5 km/h (2 Bft)
09.05.2013 14:00 22,8 C 48 % 1019,5 hPa 0,0 l/m 5,8 km/h (2 Bft) W 270 11,2 C 22,8 C 5,0 km/h (1 Bft)
09.05.2013 14:05 23,4 C 43 % 1019,4 hPa 0,0 l/m 4,8 km/h (1 Bft) NW 315 10,1 C 23,9 C 6,1 km/h (2 Bft)
09.05.2013 14:10 23,0 C 45 % 1019,4 hPa 0,0 l/m 4,0 km/h (1 Bft) W-NW 292 10,4 C 24,5 C 3,9 km/h (1 Bft)
09.05.2013 14:15 22,6 C 46 % 1019,4 hPa 0,0 l/m 3,4 km/h (1 Bft) N 360 10,4 C 25,2 C 6,4 km/h (2 Bft)
09.05.2013 14:20 20,6 C 49 % 1019,4 hPa 0,0 l/m 5,0 km/h (1 Bft) W-NW 292 9,5 C 24,2 C 4,5 km/h (1 Bft)
09.05.2013 14:25 21,6 C 48 % 1019,2 hPa 0,0 l/m 6,9 km/h (2 Bft) W-NW 292 10,1 C 23,3 C 8,0 km/h (2 Bft)
09.05.2013 14:30 21,8 C 47 % 1019,2 hPa 0,0 l/m 6,4 km/h (2 Bft) N-NW 337 10,0 C 23,1 C 9,5 km/h (2 Bft)
09.05.2013 14:35 22,5 C 47 % 1019,2 hPa 0,0 l/m 5,5 km/h (1 Bft) NW 315 10,6 C 23,2 C 5,0 km/h (1 Bft)
09.05.2013 14:40 21,9 C 49 % 1019,2 hPa 0,0 l/m 5,0 km/h (1 Bft) S-SW 202 10,7 C 23,6 C 8,7 km/h (2 Bft)
09.05.2013 14:45 22,1 C 47 % 1019,4 hPa 0,0 l/m 6,3 km/h (2 Bft) S-SW 202 10,3 C 23,6 C 6,8 km/h (2 Bft)
09.05.2013 14:50 22,2 C 48 % 1019,4 hPa 0,0 l/m 6,4 km/h (2 Bft) S-SW 202 10,7 C 23,9 C 7,4 km/h (2 Bft)
09.05.2013 14:55 21,6 C 47 % 1019,4 hPa 0,0 l/m 6,4 km/h (2 Bft) W 270 9,8 C 23,6 C 10,6 km/h (2 Bft)
09.05.2013 15:00 21,2 C 48 % 1019,4 hPa 0,0 l/m 6,3 km/h (2 Bft) W-SW 247 9,7 C 23,0 C 4,3 km/h (1 Bft)
09.05.2013 15:05 20,9 C 50 % 1019,1 hPa 0,0 l/m 5,6 km/h (1 Bft) N-NW 337 10,1 C 22,6 C 5,5 km/h (1 Bft)
09.05.2013 15:10 21,4 C 51 % 1019,1 hPa 0,0 l/m 4,0 km/h (1 Bft) W-NW 292 10,8 C 22,4 C 9,2 km/h (2 Bft)
09.05.2013 15:15 22,2 C 48 % 1019,1 hPa 0,0 l/m 4,3 km/h (1 Bft) NW 315 10,7 C 23,4 C 3,1 km/h (1 Bft)
09.05.2013 15:20 22,0 C 49 % 1019,1 hPa 0,0 l/m 5,5 km/h (1 Bft) N 360 10,8 C 24,6 C 2,9 km/h (1 Bft)
09.05.2013 15:25 21,7 C 48 % 1018,8 hPa 0,0 l/m 5,3 km/h (1 Bft) W 270 10,2 C 24,2 C 5,3 km/h (1 Bft)
09.05.2013 15:30 21,7 C 49 % 1018,8 hPa 0,0 l/m 4,7 km/h (1 Bft) S-SW 202 10,5 C 23,4 C 4,8 km/h (1 Bft)
09.05.2013 15:35 21,6 C 49 % 1018,8 hPa 0,0 l/m 5,0 km/h (1 Bft) W 270 10,4 C 23,2 C 6,8 km/h (2 Bft)
09.05.2013 15:40 22,8 C 47 % 1018,8 hPa 0,0 l/m 4,5 km/h (1 Bft) W-SW 247 10,9 C 23,5 C 2,4 km/h (1 Bft)
09.05.2013 15:45 24,1 C 45 % 1018,7 hPa 0,0 l/m 3,2 km/h (1 Bft) S-SW 202 11,4 C 25,5 C 5,0 km/h (1 Bft)
09.05.2013 15:50 22,0 C 47 % 1018,7 hPa 0,0 l/m 2,7 km/h (1 Bft) N-NW 337 10,2 C 25,7 C 5,1 km/h (1 Bft)
09.05.2013 15:55 21,4 C 48 % 1018,7 hPa 0,0 l/m 4,2 km/h (1 Bft) N-NW 337 9,9 C 24,7 C 6,6 km/h (2 Bft)
09.05.2013 16:00 21,9 C 48 % 1018,7 hPa 0,0 l/m 4,7 km/h (1 Bft) N-NW 337 10,4 C 24,3 C 5,1 km/h (1 Bft)
09.05.2013 16:05 20,9 C 49 % 1018,5 hPa 0,0 l/m 5,1 km/h (1 Bft) W-NW 292 9,8 C 23,8 C 10,3 km/h (2 Bft)
09.05.2013 16:10 19,9 C 52 % 1018,5 hPa 0,0 l/m 5,1 km/h (1 Bft) W-SW 247 9,7 C 21,9 C 4,3 km/h (1 Bft)
09.05.2013 16:15 19,7 C 53 % 1018,5 hPa 0,0 l/m 3,9 km/h (1 Bft) W-SW 247 9,8 C 21,1 C 0,0 km/h (0 Bft)
09.05.2013 16:20 19,7 C 54 % 1018,5 hPa 0,0 l/m 1,8 km/h (1 Bft) W-SW 247 10,1 C 20,8 C 0,0 km/h (0 Bft)
09.05.2013 16:25 19,6 C 55 % 1018,1 hPa 0,0 l/m 0,8 km/h (0 Bft) S-SW 202 10,3 C 20,6 C 0,0 km/h (0 Bft)
09.05.2013 16:30 19,1 C 57 % 1018,1 hPa 0,0 l/m 0,8 km/h (0 Bft) S 180 10,4 C 20,2 C 3,5 km/h (1 Bft)
09.05.2013 16:35 18,5 C 60 % 1018,1 hPa 0,0 l/m 3,7 km/h (1 Bft) W-SW 247 10,6 C 19,7 C 9,0 km/h (2 Bft)
09.05.2013 16:40 17,6 C 63 % 1018,1 hPa 0,0 l/m 6,0 km/h (2 Bft) S 180 10,5 C 18,6 C 15,0 km/h (3 Bft)
09.05.2013 16:45 17,7 C 62 % 1018,1 hPa 0,0 l/m 4,5 km/h (1 Bft) S-SW 202 10,3 C 18,3 C 1,6 km/h (1 Bft)
09.05.2013 16:50 17,4 C 66 % 1018,1 hPa 0,0 l/m 4,7 km/h (1 Bft) W-SW 247 11,0 C 17,7 C 7,2 km/h (2 Bft)
09.05.2013 16:55 17,1 C 66 % 1018,1 hPa 0,0 l/m 6,0 km/h (2 Bft) W-SW 247 10,7 C 17,4 C 6,9 km/h (2 Bft)
09.05.2013 17:00 16,8 C 67 % 1018,1 hPa 0,0 l/m 6,0 km/h (2 Bft) S 180 10,6 C 17,2 C 4,5 km/h (1 Bft)
09.05.2013 17:05 16,9 C 66 % 1018,2 hPa 0,0 l/m 5,0 km/h (1 Bft) SW 225 10,5 C 17,1 C 4,0 km/h (1 Bft)
09.05.2013 17:10 16,9 C 66 % 1018,2 hPa 0,0 l/m 4,3 km/h (1 Bft) SW 225 10,5 C 17,2 C 5,0 km/h (1 Bft)
09.05.2013 17:15 16,8 C 67 % 1018,2 hPa 0,0 l/m 3,5 km/h (1 Bft) S 180 10,6 C 17,2 C 4,5 km/h (1 Bft)
09.05.2013 17:20 17,2 C 67 % 1018,2 hPa 0,0 l/m 3,7 km/h (1 Bft) S 180 11,0 C 17,5 C 7,4 km/h (2 Bft)
09.05.2013 17:25 17,2 C 68 % 1018,2 hPa 0,0 l/m 4,8 km/h (1 Bft) S-SO 157 11,2 C 18,1 C 6,6 km/h (2 Bft)
09.05.2013 17:30 17,0 C 69 % 1018,2 hPa 0,0 l/m 4,8 km/h (1 Bft) S 180 11,3 C 18,1 C 2,7 km/h (1 Bft)
09.05.2013 17:35 17,7 C 67 % 1018,2 hPa 0,0 l/m 3,5 km/h (1 Bft) SO 135 11,5 C 19,1 C 1,8 km/h (1 Bft)
09.05.2013 17:40 18,2 C 66 % 1018,2 hPa 0,0 l/m 2,1 km/h (1 Bft) S-SW 202 11,7 C 20,8 C 2,6 km/h (1 Bft)
09.05.2013 17:45 18,1 C 66 % 1017,9 hPa 0,0 l/m 1,9 km/h (1 Bft) O-SO 112 11,6 C 20,6 C 0,0 km/h (0 Bft)
09.05.2013 17:50 17,6 C 65 % 1017,9 hPa 0,0 l/m 1,8 km/h (1 Bft) SO 135 10,9 C 20,0 C 2,7 km/h (1 Bft)
09.05.2013 17:55 17,8 C 67 % 1017,9 hPa 0,0 l/m 2,1 km/h (1 Bft) S-SO 157 11,6 C 19,5 C 2,7 km/h (1 Bft)
09.05.2013 18:00 17,8 C 66 % 1017,9 hPa 0,0 l/m 2,3 km/h (1 Bft) W-SW 247 11,4 C 19,1 C 0,0 km/h (0 Bft)
09.05.2013 18:05 18,2 C 65 % 1017,9 hPa 0,0 l/m 2,1 km/h (1 Bft) S-SO 157 11,5 C 19,1 C 1,9 km/h (1 Bft)
09.05.2013 18:10 18,0 C 66 % 1017,9 hPa 0,0 l/m 0,5 km/h (0 Bft) NO 45 11,6 C 19,5 C 0,0 km/h (0 Bft)
09.05.2013 18:15 17,9 C 65 % 1017,9 hPa 0,0 l/m 0,3 km/h (0 Bft) O 90 11,2 C 19,5 C 0,0 km/h (0 Bft)
09.05.2013 18:20 17,6 C 66 % 1017,9 hPa 0,0 l/m 0,5 km/h (0 Bft) O 90 11,2 C 19,3 C 0,0 km/h (0 Bft)
09.05.2013 18:25 17,4 C 66 % 1017,8 hPa 0,0 l/m 0,2 km/h (0 Bft) O 90 11,0 C 18,9 C 0,0 km/h (0 Bft)
09.05.2013 18:30 17,1 C 67 % 1017,8 hPa 0,0 l/m 0,2 km/h (0 Bft) S-SO 157 10,9 C 18,5 C 0,0 km/h (0 Bft)
09.05.2013 18:35 17,0 C 68 % 1017,8 hPa 0,0 l/m 0,3 km/h (0 Bft) S 180 11,0 C 18,2 C 1,8 km/h (1 Bft)
09.05.2013 18:40 16,9 C 69 % 1017,8 hPa 0,0 l/m 0,2 km/h (0 Bft) S 180 11,2 C 17,8 C 0,0 km/h (0 Bft)
09.05.2013 18:45 16,7 C 71 % 1017,6 hPa 0,0 l/m 0,5 km/h (0 Bft) W-SW 247 11,4 C 17,6 C 1,8 km/h (1 Bft)
09.05.2013 18:50 16,5 C 74 % 1017,6 hPa 0,0 l/m 2,4 km/h (1 Bft) S-SW 202 11,8 C 17,0 C 5,0 km/h (1 Bft)
09.05.2013 18:55 16,3 C 74 % 1017,6 hPa 0,0 l/m 2,6 km/h (1 Bft) S 180 11,7 C 16,4 C 2,4 km/h (1 Bft)
09.05.2013 19:00 15,9 C 76 % 1017,6 hPa 0,0 l/m 1,6 km/h (1 Bft) NO 45 11,7 C 15,6 C 0,0 km/h (0 Bft)
09.05.2013 19:05 15,7 C 78 % 1017,6 hPa 0,0 l/m 1,9 km/h (1 Bft) S 180 11,9 C 15,4 C 4,0 km/h (1 Bft)
09.05.2013 19:10 15,2 C 81 % 1017,6 hPa 0,0 l/m 2,3 km/h (1 Bft) O-SO 112 12,0 C 15,0 C 2,9 km/h (1 Bft)
09.05.2013 19:15 14,9 C 85 % 1017,6 hPa 0,0 l/m 2,1 km/h (1 Bft) NO 45 12,4 C 14,8 C 0,0 km/h (0 Bft)
09.05.2013 19:20 14,6 C 88 % 1017,6 hPa 0,0 l/m 2,1 km/h (1 Bft) N 360 12,6 C 14,7 C 4,7 km/h (1 Bft)
09.05.2013 19:25 14,5 C 88 % 1017,6 hPa 0,0 l/m 2,6 km/h (1 Bft) N-NO 22 12,5 C 14,5 C 3,1 km/h (1 Bft)
09.05.2013 19:30 14,2 C 89 % 1017,6 hPa 0,0 l/m 3,2 km/h (1 Bft) O 90 12,4 C 14,3 C 5,5 km/h (1 Bft)
09.05.2013 19:35 14,1 C 89 % 1017,6 hPa 0,0 l/m 3,7 km/h (1 Bft) O-SO 112 12,3 C 14,2 C 4,0 km/h (1 Bft)
09.05.2013 19:40 14,1 C 90 % 1017,6 hPa 0,0 l/m 2,3 km/h (1 Bft) N-NO 22 12,5 C 14,2 C 0,0 km/h (0 Bft)
09.05.2013 19:45 14,1 C 91 % 1017,4 hPa 0,0 l/m 0,5 km/h (0 Bft) NO 45 12,7 C 14,4 C 0,0 km/h (0 Bft)
09.05.2013 19:50 14,1 C 91 % 1017,4 hPa 0,0 l/m 0,0 km/h (0 Bft) NO 45 12,7 C 14,6 C 0,0 km/h (0 Bft)
09.05.2013 19:55 14,1 C 91 % 1017,4 hPa 0,0 l/m 0,0 km/h (0 Bft) NO 45 12,7 C 14,7 C 0,0 km/h (0 Bft)
09.05.2013 20:00 14,2 C 91 % 1017,4 hPa 0,0 l/m 0,0 km/h (0 Bft) S-SW 202 12,8 C 15,4 C 0,0 km/h (0 Bft)
09.05.2013 20:05 14,3 C 92 % 1017,5 hPa 0,0 l/m 0,0 km/h (0 Bft) N-NO 22 13,0 C 15,8 C 2,3 km/h (1 Bft)
09.05.2013 20:10 14,2 C 92 % 1017,5 hPa 0,0 l/m 0,2 km/h (0 Bft) S-SW 202 12,9 C 15,6 C 0,0 km/h (0 Bft)
09.05.2013 20:15 14,1 C 92 % 1017,5 hPa 0,0 l/m 0,2 km/h (0 Bft) NO 45 12,8 C 15,2 C 0,0 km/h (0 Bft)
09.05.2013 20:20 13,9 C 92 % 1017,5 hPa 0,0 l/m 0,2 km/h (0 Bft) SO 135 12,6 C 14,8 C 0,0 km/h (0 Bft)
09.05.2013 20:25 13,8 C 92 % 1017,4 hPa 0,0 l/m 0,2 km/h (0 Bft) O-SO 112 12,5 C 14,6 C 0,0 km/h (0 Bft)
09.05.2013 20:30 13,6 C 92 % 1017,4 hPa 0,0 l/m 0,3 km/h (0 Bft) N-NO 22 12,3 C 14,2 C 0,0 km/h (0 Bft)
09.05.2013 20:35 13,5 C 92 % 1017,4 hPa 0,0 l/m 1,0 km/h (0 Bft) N 360 12,2 C 14,0 C 2,7 km/h (1 Bft)
09.05.2013 20:40 13,3 C 92 % 1017,4 hPa 0,0 l/m 1,8 km/h (1 Bft) O 90 12,0 C 13,7 C 3,1 km/h (1 Bft)
09.05.2013 20:45 13,2 C 92 % 1017,1 hPa 0,0 l/m 1,9 km/h (1 Bft) O-SO 112 11,9 C 13,6 C 1,6 km/h (1 Bft)
09.05.2013 20:50 13,2 C 92 % 1017,1 hPa 0,0 l/m 1,1 km/h (1 Bft) O 90 11,9 C 13,5 C 0,0 km/h (0 Bft)
09.05.2013 20:55 13,2 C 93 % 1017,1 hPa 0,0 l/m 0,6 km/h (0 Bft) NO 45 12,1 C 13,4 C 2,7 km/h (1 Bft)
09.05.2013 21:00 13,1 C 93 % 1017,1 hPa 0,0 l/m 0,3 km/h (0 Bft) O 90 12,0 C 13,4 C 0,0 km/h (0 Bft)
09.05.2013 21:05 13,1 C 93 % 1016,7 hPa 0,0 l/m 0,2 km/h (0 Bft) SW 225 12,0 C 13,4 C 0,0 km/h (0 Bft)
09.05.2013 21:10 13,2 C 93 % 1016,7 hPa 0,0 l/m 0,2 km/h (0 Bft) S 180 12,1 C 13,4 C 0,0 km/h (0 Bft)
09.05.2013 21:15 13,1 C 93 % 1016,7 hPa 0,0 l/m 0,2 km/h (0 Bft) S-SW 202 12,0 C 13,4 C 1,6 km/h (1 Bft)
09.05.2013 21:20 13,1 C 93 % 1016,7 hPa 0,0 l/m 0,2 km/h (0 Bft) W 270 12,0 C 13,4 C 0,0 km/h (0 Bft)
09.05.2013 21:25 13,0 C 93 % 1016,6 hPa 0,0 l/m 0,2 km/h (0 Bft) N-NO 22 11,9 C 13,3 C 0,0 km/h (0 Bft)
09.05.2013 21:30 12,8 C 94 % 1016,6 hPa 0,0 l/m 0,5 km/h (0 Bft) S-SW 202 11,9 C 13,1 C 0,0 km/h (0 Bft)
09.05.2013 21:35 12,8 C 94 % 1016,6 hPa 0,0 l/m 0,8 km/h (0 Bft) NO 45 11,9 C 13,1 C 0,0 km/h (0 Bft)
09.05.2013 21:40 12,7 C 94 % 1016,6 hPa 0,0 l/m 0,5 km/h (0 Bft) SW 225 11,8 C 12,9 C 1,9 km/h (1 Bft)
09.05.2013 21:45 12,8 C 94 % 1016,6 hPa 0,0 l/m 0,8 km/h (0 Bft) S 180 11,9 C 13,0 C 2,6 km/h (1 Bft)
09.05.2013 21:50 13,0 C 93 % 1016,6 hPa 0,7 l/m 1,3 km/h (1 Bft) O 90 11,9 C 13,1 C 0,0 km/h (0 Bft)
09.05.2013 21:55 13,0 C 93 % 1016,6 hPa 0,0 l/m 1,0 km/h (0 Bft) N-NO 22 11,9 C 13,2 C 1,8 km/h (1 Bft)
09.05.2013 22:00 13,1 C 93 % 1016,6 hPa 0,0 l/m 0,3 km/h (0 Bft) W 270 12,0 C 13,3 C 0,0 km/h (0 Bft)
09.05.2013 22:05 13,1 C 93 % 1016,9 hPa 0,0 l/m 0,3 km/h (0 Bft) W 270 12,0 C 13,4 C 0,0 km/h (0 Bft)
09.05.2013 22:10 13,2 C 93 % 1016,9 hPa 0,0 l/m 0,0 km/h (0 Bft) W-SW 247 12,1 C 13,4 C 1,8 km/h (1 Bft)
09.05.2013 22:15 13,2 C 93 % 1016,9 hPa 0,0 l/m 0,0 km/h (0 Bft) W 270 12,1 C 13,4 C 0,0 km/h (0 Bft)
09.05.2013 22:20 13,2 C 94 % 1016,9 hPa 0,0 l/m 0,0 km/h (0 Bft) NO 45 12,3 C 13,4 C 0,0 km/h (0 Bft)
09.05.2013 22:25 13,2 C 94 % 1017,1 hPa 0,0 l/m 0,0 km/h (0 Bft) O 90 12,3 C 13,4 C 0,0 km/h (0 Bft)
09.05.2013 22:30 13,2 C 94 % 1017,1 hPa 0,0 l/m 0,0 km/h (0 Bft) O-SO 112 12,3 C 13,4 C 0,0 km/h (0 Bft)
09.05.2013 22:35 13,3 C 94 % 1017,1 hPa 0,0 l/m 0,0 km/h (0 Bft) S 180 12,4 C 13,5 C 0,0 km/h (0 Bft)
09.05.2013 22:40 13,3 C 94 % 1017,1 hPa 0,0 l/m 0,0 km/h (0 Bft) S-SW 202 12,4 C 13,5 C 0,0 km/h (0 Bft)
09.05.2013 22:45 13,3 C 94 % 1017,7 hPa 0,0 l/m 2,1 km/h (1 Bft) S 180 12,4 C 13,5 C 7,2 km/h (2 Bft)
09.05.2013 22:50 13,4 C 93 % 1017,7 hPa 0,0 l/m 5,3 km/h (1 Bft) S-SO 157 12,3 C 13,6 C 6,9 km/h (2 Bft)
09.05.2013 22:55 13,3 C 93 % 1017,7 hPa 0,0 l/m 6,1 km/h (2 Bft) S 180 12,2 C 13,7 C 7,9 km/h (2 Bft)
09.05.2013 23:00 13,0 C 93 % 1017,7 hPa 0,0 l/m 6,9 km/h (2 Bft) S-SO 157 11,9 C 13,3 C 9,0 km/h (2 Bft)
09.05.2013 23:05 12,9 C 93 % 1017,6 hPa 0,0 l/m 8,0 km/h (2 Bft) S 180 11,8 C 12,2 C 11,1 km/h (2 Bft)
09.05.2013 23:10 12,7 C 92 % 1017,6 hPa 0,0 l/m 8,5 km/h (2 Bft) N-NW 337 11,4 C 11,5 C 15,9 km/h (3 Bft)
09.05.2013 23:15 12,6 C 91 % 1017,6 hPa 0,0 l/m 7,7 km/h (2 Bft) S 180 11,2 C 11,9 C 6,0 km/h (2 Bft)
09.05.2013 23:20 12,5 C 91 % 1017,6 hPa 0,0 l/m 5,3 km/h (1 Bft) S-SO 157 11,1 C 12,9 C 8,2 km/h (2 Bft)
09.05.2013 23:25 12,4 C 91 % 1017,4 hPa 0,0 l/m 4,7 km/h (1 Bft) S 180 11,0 C 12,9 C 6,0 km/h (2 Bft)
09.05.2013 23:30 12,4 C 91 % 1017,4 hPa 0,0 l/m 4,3 km/h (1 Bft) O-SO 112 11,0 C 12,7 C 2,3 km/h (1 Bft)
09.05.2013 23:35 12,3 C 91 % 1017,4 hPa 0,0 l/m 3,4 km/h (1 Bft) S-SO 157 10,9 C 12,7 C 2,3 km/h (1 Bft)
09.05.2013 23:40 12,4 C 91 % 1017,4 hPa 0,0 l/m 2,6 km/h (1 Bft) O-SO 112 11,0 C 12,6 C 4,7 km/h (1 Bft)
09.05.2013 23:45 12,4 C 91 % 1017,4 hPa 0,0 l/m 2,6 km/h (1 Bft) SO 135 11,0 C 12,6 C 3,4 km/h (1 Bft)
09.05.2013 23:50 12,4 C 91 % 1017,4 hPa 0,0 l/m 2,3 km/h (1 Bft) S-SO 157 11,0 C 12,6 C 0,0 km/h (0 Bft)
09.05.2013 23:55 12,3 C 91 % 1017,4 hPa 0,0 l/m 1,4 km/h (1 Bft) NO 45 10,9 C 12,6 C 0,0 km/h (0 Bft)
_ Min-Zeit 00:30 12:10 22:00 - 22:40 - - 05:55 00:35 23:55
Minimum _ 9,9 C 39 % 1016,6 hPa - 0,0 km/h (0 Bft) - - 7,3 C 9,8 C 0,0 km/h (0 Bft)
_ Max-Zeit 12:00 22:45 10:40 21:50 23:10 - - 20:05 12:05 23:10
Maximum _ 24,7 C 94 % 1020,1 hPa 0,7 l/m 8,5 km/h
N-NW (2 Bft)
- - 13,0 C 25,8 C 15,9 km/h
N-NW (3 Bft)
Durchschnitt _ 15,9 C 70 % 1018,3 hPa #0,7 l/m 2,4 km/h (1 Bft) W-SW - 9,9 C 16,6 C 3,2 km/h (1 Bft)